Weather History for La Crosse, WI

Change the Weather History Date:

Saturday, June 30, 2012

  Actual Average Record
Temperature  
Mean Temperature 80 °F 73 °F  
Max Temperature 92 °F 84 °F 100 °F (1933)
Min Temperature 68 °F 63 °F 48 °F (1943)
Degree Days  
Heating Degree Days 0 0  
Month to date heating degree days 17 38  
Since 1 June heating degree days 17  
Since 1 July heating degree days 5783 7195  
Cooling Degree Days 15 8  
Month to date cooling degree days 247 166  
Year to date cooling degree days 355 214  
Since 1 June cooling degree days 247  
Growing Degree Days 30 (Base 50)    
Moisture  
Dew Point 64 °F    
Average Humidity 63    
Maximum Humidity 93    
Minimum Humidity 32    
Precipitation  
Precipitation 0.00 in 0.15 in 1.93 in (1978)
Month to date precipitation 3.24 4.34  
Year to date precipitation 14.78 15.41  
Snow  
Snow 0.00 in 0.00 in 0.00 in (2002)
Month to date snowfall 0.0 0.0  
Since 1 June snowfall 0.0  
Since 1 July snowfall 21.5 43.3  
Snow Depth 0.00 in    
Sea Level Pressure  
Sea Level Pressure 29.81 in    
Wind  
Wind Speed 3 mph (WNW)    
Max Wind Speed 10 mph    
Max Gust Speed 17 mph    
Visibility 10 miles    
Events      
T = Trace of Precipitation, MM = Missing Value Source: NWS Daily Summary

Daily Weather History Graph

Daily Weather History Graph

Search for Another Location

Airport:

Trip Planner

Search our weather history database for the weather conditions in past years. The results will help you decide how hot, cold, wet, or windy it might be!

Date:

Astronomy

Jun. 30, 2012 Rise Set
Actual Time 5:26 AM CDT 8:51 PM CDT
Civil Twilight 4:50 AM CDT 9:27 PM CDT
Nautical Twilight 4:03 AM CDT 10:14 PM CDT
Astronomical Twilight 3:03 AM CDT 11:13 PM CDT
Moon 5:46 PM CDT (6/30) 2:24 AM CDT (6/30)
Length of Visible Light 16h 37m
Length of Day
15h 25m
Waxing Gibbous, 87% of the Moon is Illuminated
Jun 30
Waxing Gibbous
Jul 3
Full
Jul 10
Last Quarter
Jul 18
New
Jul 26
First Quarter

Hourly Weather History & Observations

Time (CDT) Temp. Heat Index Dew Point Humidity Pressure Visibility Wind Dir Wind Speed Gust Speed Precip Events Conditions
12:53 AM 71.1 °F - 66.9 °F 87% 29.78 in 10.0 mi SE 5.8 mph - N/A   Clear
1:53 AM 71.1 °F - 66.9 °F 87% 29.78 in 10.0 mi South 6.9 mph - N/A   Clear
2:53 AM 70.0 °F - 66.9 °F 90% 29.78 in 10.0 mi Calm Calm - N/A   Clear
3:53 AM 68.0 °F - 66.0 °F 93% 29.78 in 10.0 mi Calm Calm - N/A   Clear
4:53 AM 70.0 °F - 66.9 °F 90% 29.78 in 10.0 mi South 3.5 mph - N/A   Clear
6:53 AM 71.1 °F - 66.9 °F 87% 29.80 in 10.0 mi Calm Calm - N/A   Clear
7:53 AM 73.9 °F - 66.9 °F 79% 29.81 in 10.0 mi Calm Calm - N/A   Clear
8:53 AM 78.1 °F - 66.9 °F 68% 29.81 in 10.0 mi Calm Calm - N/A   Clear
9:53 AM 81.0 °F 83.3 °F 66.9 °F 62% 29.81 in 10.0 mi Calm Calm - N/A   Clear
10:53 AM 82.0 °F 84.5 °F 66.9 °F 60% 29.82 in 10.0 mi NW 5.8 mph - N/A   Clear
11:53 AM 86.0 °F 88.2 °F 66.0 °F 51% 29.82 in 10.0 mi Variable 5.8 mph - N/A   Clear
12:53 PM 88.0 °F 89.3 °F 64.0 °F 45% 29.80 in 10.0 mi WNW 10.4 mph - N/A   Clear
1:53 PM 89.1 °F 88.2 °F 59.0 °F 36% 29.81 in 10.0 mi WNW 8.1 mph - N/A   Clear
2:53 PM 91.0 °F 90.2 °F 59.0 °F 34% 29.80 in 10.0 mi West 8.1 mph - N/A   Clear
3:53 PM 91.0 °F 90.0 °F 57.9 °F 33% 29.81 in 10.0 mi NNW 8.1 mph - N/A   Clear
4:53 PM 91.0 °F 90.5 °F 60.1 °F 35% 29.79 in 10.0 mi NW 8.1 mph - N/A   Clear
5:53 PM 91.0 °F 89.7 °F 57.0 °F 32% 29.78 in 10.0 mi NW 4.6 mph - N/A   Clear
6:53 PM 89.1 °F 88.0 °F 57.9 °F 35% 29.79 in 10.0 mi NNW 3.5 mph - N/A   Clear
7:53 PM 86.0 °F 85.7 °F 60.1 °F 41% 29.81 in 10.0 mi Calm Calm - N/A   Clear
8:53 PM 80.6 °F 82.3 °F 64.4 °F 58% 29.85 in 10.0 mi Calm Calm - N/A   Clear
9:53 PM 77.0 °F - 64.9 °F 66% 29.83 in 10.0 mi Calm Calm - N/A   Clear
10:53 PM 73.9 °F - 64.9 °F 73% 29.84 in 10.0 mi Calm Calm - N/A   Clear
11:53 PM 70.0 °F - 64.0 °F 81% 29.85 in 10.0 mi Calm Calm - N/A   Clear